Time,TemperatureF,DewpointF,PressureIn,WindDirection,WindDirectionDegrees,WindSpeedMPH,WindSpeedGustMPH,Humidity,HourlyPrecipIn,Conditions,Clouds,dailyrainin,SoftwareType,DateUTC
2013-05-25 00:00:00,51.0,44.4,30.52,SW,225,0.0,8.0,78,0.00,,,-99.99,Weather View 32 v60,2013-05-25 05:00:00,
2013-05-25 00:30:00,50.0,43.1,30.52,SW,225,0.0,8.0,77,0.00,,,-99.99,Weather View 32 v60,2013-05-25 05:30:00,
2013-05-25 01:00:00,50.0,42.4,30.51,West,270,0.0,5.0,75,0.00,,,-99.99,Weather View 32 v60,2013-05-25 06:00:00,
2013-05-25 01:30:00,49.0,40.0,30.53,WSW,248,0.0,3.0,71,0.00,,,-99.99,Weather View 32 v60,2013-05-25 06:30:00,
2013-05-25 02:00:00,49.0,39.6,30.54,West,270,0.0,3.0,70,0.00,,,-99.99,Weather View 32 v60,2013-05-25 07:00:00,
2013-05-25 02:30:00,48.0,38.7,30.54,WSW,248,0.0,3.0,70,0.00,,,-99.99,Weather View 32 v60,2013-05-25 07:30:00,
2013-05-25 03:00:00,48.0,39.0,30.54,SW,225,0.0,3.0,71,0.00,,,-99.99,Weather View 32 v60,2013-05-25 08:00:00,
2013-05-25 03:30:00,48.0,39.0,30.53,SW,225,0.0,1.0,71,0.00,,,-99.99,Weather View 32 v60,2013-05-25 08:30:00,
2013-05-25 04:00:00,48.0,39.4,30.54,SW,225,0.0,1.0,72,0.00,,,-99.99,Weather View 32 v60,2013-05-25 09:00:00,
2013-05-25 04:30:00,48.0,39.4,30.54,SSW,202,0.0,0.0,72,0.00,,,-99.99,Weather View 32 v60,2013-05-25 09:30:00,
2013-05-25 05:00:00,48.0,38.3,30.56,West,270,0.0,0.0,69,0.00,,,-99.99,Weather View 32 v60,2013-05-25 10:00:00,
2013-05-25 05:30:00,49.0,38.9,30.58,SW,225,0.0,0.0,68,0.00,,,-99.99,Weather View 32 v60,2013-05-25 10:30:00,
2013-05-25 06:00:00,49.0,37.3,30.59,West,270,0.0,0.0,64,0.00,,,-99.99,Weather View 32 v60,2013-05-25 11:00:00,
2013-05-25 06:30:00,49.0,36.5,30.60,WSW,248,0.0,0.0,62,0.00,,,-99.99,Weather View 32 v60,2013-05-25 11:30:00,
2013-05-25 07:00:00,50.0,37.1,30.60,SSW,202,0.0,0.0,61,0.00,,,-99.99,Weather View 32 v60,2013-05-25 12:00:00,
2013-05-25 07:30:00,51.0,38.0,30.59,SE,135,0.0,1.0,61,0.00,,,-99.99,Weather View 32 v60,2013-05-25 12:30:00,
2013-05-25 08:00:00,53.0,38.6,30.59,South,180,0.0,1.0,58,0.00,,,-99.99,Weather View 32 v60,2013-05-25 13:00:00,
2013-05-25 08:30:00,53.0,38.1,30.60,SSW,202,0.0,3.0,57,0.00,,,-99.99,Weather View 32 v60,2013-05-25 13:30:00,
2013-05-25 09:00:00,54.0,39.1,30.59,East,90,0.0,6.0,57,0.00,,,-99.99,Weather View 32 v60,2013-05-25 14:00:00,
2013-05-25 09:30:00,55.0,39.6,30.59,East,90,0.0,6.0,56,0.00,,,-99.99,Weather View 32 v60,2013-05-25 14:30:00,
2013-05-25 10:00:00,57.0,41.4,30.59,SE,135,0.0,5.0,56,0.00,,,-99.99,Weather View 32 v60,2013-05-25 15:00:00,
2013-05-25 10:30:00,56.0,36.5,30.57,SW,225,0.0,6.0,48,0.00,,,-99.99,Weather View 32 v60,2013-05-25 15:30:00,
2013-05-25 11:00:00,58.0,38.9,30.56,South,180,0.0,7.0,49,0.00,,,-99.99,Weather View 32 v60,2013-05-25 16:00:00,
2013-05-25 11:30:00,59.0,41.4,30.57,SSE,158,0.0,13.0,52,0.00,,,-99.99,Weather View 32 v60,2013-05-25 16:30:00,
2013-05-25 12:00:00,59.0,42.3,30.56,South,180,8.0,16.0,54,0.00,,,-99.99,Weather View 32 v60,2013-05-25 17:00:00,
2013-05-25 12:30:00,60.0,41.8,30.55,South,180,5.0,16.0,51,0.00,,,-99.99,Weather View 32 v60,2013-05-25 17:30:00,
2013-05-25 13:00:00,61.0,40.0,30.53,SW,225,0.0,16.0,46,0.00,,,-99.99,Weather View 32 v60,2013-05-25 18:00:00,
2013-05-25 13:30:00,61.0,40.0,30.52,SW,225,0.0,14.0,46,0.00,,,-99.99,Weather View 32 v60,2013-05-25 18:30:00,
2013-05-25 14:00:00,63.0,40.7,30.52,South,180,0.0,14.0,44,0.00,,,-99.99,Weather View 32 v60,2013-05-25 19:00:00,
2013-05-25 14:30:00,63.0,41.3,30.52,South,180,0.0,12.0,45,0.00,,,-99.99,Weather View 32 v60,2013-05-25 19:30:00,
2013-05-25 15:00:00,63.0,40.7,30.53,SW,225,0.0,11.0,44,0.00,,,-99.99,Weather View 32 v60,2013-05-25 20:00:00,
2013-05-25 15:30:00,63.0,41.3,30.51,SW,225,6.0,10.0,45,0.00,,,-99.99,Weather View 32 v60,2013-05-25 20:30:00,
2013-05-25 16:00:00,63.0,40.7,30.51,West,270,0.0,9.0,44,0.00,,,-99.99,Weather View 32 v60,2013-05-25 21:00:00,
2013-05-25 16:30:00,64.0,42.2,30.50,WSW,248,0.0,12.0,45,0.00,,,-99.99,Weather View 32 v60,2013-05-25 21:30:00,
2013-05-25 17:00:00,65.0,42.5,30.50,WSW,248,0.0,13.0,44,0.00,,,-99.99,Weather View 32 v60,2013-05-25 22:00:00,
2013-05-25 17:30:00,64.0,42.2,30.48,South,180,0.0,13.0,45,0.00,,,-99.99,Weather View 32 v60,2013-05-25 22:30:00,
2013-05-25 18:00:00,63.0,41.8,30.47,SE,135,0.0,10.0,46,0.00,,,-99.99,Weather View 32 v60,2013-05-25 23:00:00,
2013-05-25 18:30:00,62.0,41.5,30.47,SE,135,0.0,10.0,47,0.00,,,-99.99,Weather View 32 v60,2013-05-25 23:30:00,
2013-05-25 19:00:00,61.0,40.6,30.48,SSW,202,0.0,8.0,47,0.00,,,-99.99,Weather View 32 v60,2013-05-26 00:00:00,
2013-05-25 19:30:00,60.0,42.3,30.48,SSE,158,0.0,3.0,52,0.00,,,-99.99,Weather View 32 v60,2013-05-26 00:30:00,
2013-05-25 20:00:00,59.0,42.3,30.48,SSE,158,0.0,3.0,54,0.00,,,-99.99,Weather View 32 v60,2013-05-26 01:00:00,
2013-05-25 20:30:00,57.0,41.0,30.49,South,180,0.0,3.0,55,0.00,,,-99.99,Weather View 32 v60,2013-05-26 01:30:00,
2013-05-25 21:00:00,56.0,40.9,30.50,SSE,158,0.0,3.0,57,0.00,,,-99.99,Weather View 32 v60,2013-05-26 02:00:00,
2013-05-25 21:30:00,56.0,42.3,30.50,SSW,202,0.0,0.0,60,0.00,,,-99.99,Weather View 32 v60,2013-05-26 02:30:00,
2013-05-25 22:00:00,54.0,42.1,30.50,South,180,0.0,0.0,64,0.00,,,-99.99,Weather View 32 v60,2013-05-26 03:00:00,
2013-05-25 22:30:00,53.0,41.9,30.51,South,180,0.0,0.0,66,0.00,,,-99.99,Weather View 32 v60,2013-05-26 03:30:00,
2013-05-25 23:00:00,52.0,41.7,30.50,South,180,0.0,0.0,68,0.00,,,-99.99,Weather View 32 v60,2013-05-26 04:00:00,
2013-05-25 23:30:00,50.0,41.0,30.50,SSE,158,0.0,0.0,71,0.00,,,-99.99,Weather View 32 v60,2013-05-26 04:30:00,